#timestamp,LO_Frequency,Hit,StdDev 
1510531215.4,286046998.7,N
1510531235.3,286047000.0,N
1510531255.1,286046998.7,N
1510531256.0,286046998.7,N
1510531275.8,286046998.4,N
1510531295.6,286046999.0,N
1510531315.5,286046995.0,N
1510531335.3,286046995.9,N
1510531355.1,286046996.8,N
1510531375.9,286046996.5,N
1510531395.7,286046996.9,N
1510531415.5,286046995.3,N
1510531435.4,286046995.2,N
1510531455.2,286046995.7,N
1510531475.0,286046995.4,N
1510531475.9,286046995.4,N
1510531495.8,286046994.0,N
1510531515.6,286046990.3,Y
1510531535.4,286046993.1,P
1510531555.3,286046990.2,P
1510531575.1,286046990.6,P
1510531576.0,286046990.6,Y
1510531595.8,286046999.4,P
1510531615.7,286046998.0,N
1510531635.5,286046994.5,N
1510531655.3,286046990.5,Y
1510531675.2,286046998.2,P
1510531695.0,286046999.3,N
1510531695.9,286046999.3,N
1510531715.7,286046995.1,Y
1510531735.6,286046997.3,P
1510531755.4,286046997.9,P
1510531775.2,286046997.1,P
1510531795.1,286046997.4,Y
1510531796.0,286046997.4,P
1510531815.8,286047002.0,P
1510531835.6,286047004.2,N
1510531855.5,286047001.0,N
1510531875.3,286046996.8,N
1510531895.1,286046996.1,N
1510531915.9,286046998.9,N
1510531935.7,286046995.3,N
1510531955.5,286046997.0,N
1510531975.4,286046999.5,N
1510531995.2,286047000.9,N
1510532015.0,286046996.8,N
1510532015.9,286046996.8,N
1510532035.8,286046997.4,N
1510532055.6,286047000.4,N
1510532075.4,286046997.7,N
1510532095.2,286046997.1,N
1510532115.1,286046995.7,N
1510532116.0,286046995.7,N
1510532135.8,286046999.4,N
1510532155.6,286046997.2,N
1510532175.5,286046995.6,N
1510532195.3,286046997.3,N
1510532215.1,286046997.1,N
1510532235.9,286046998.8,N
1510532255.7,286046998.3,N
1510532275.5,286046998.4,N
1510532295.4,286047002.0,N
1510532315.2,286046999.9,N
1510532335.0,286046996.6,N
1510532335.9,286046996.6,N
1510532355.8,286046998.9,N
1510532375.6,286046999.8,N
1510532395.4,286047002.7,N
1510532415.3,286046998.6,N
1510532435.1,286047003.6,N
1510532436.0,286047003.6,N
1510532455.8,286047006.0,N
1510532475.6,286047004.2,N
1510532495.5,286047003.9,N
1510532515.3,286047003.3,N
1510532535.1,286047005.9,N
1510532555.9,286047008.2,N
1510532575.7,286047011.6,Y
1510532595.5,286047013.4,P
1510532615.4,286047017.2,N
1510532635.2,286047015.8,N
1510532655.0,286047019.6,N
1510532655.9,286047019.6,N
1510532675.8,286047021.9,Y
1510532695.6,286047001.5,P
1510532715.4,286047008.7,N
1510532735.3,286047008.8,N
1510532755.1,286047010.0,N
1510532775.8,286047010.5,N
1510532795.7,286047012.4,Y
1510532815.5,286047001.3,P
1510532835.3,286047004.0,N
1510532855.2,286047002.5,N
1510532875.9,286047004.1,N
1510532895.7,286047001.3,N
1510532915.6,286047003.9,N
1510532935.4,286047003.4,N
1510532955.2,286047001.7,N
1510532975.1,286047002.5,N
1510532976.0,286047002.5,N
1510532995.8,286047002.4,N
1510533015.6,286047002.2,N
1510533035.4,286046998.3,N
1510533055.3,286046998.6,N
1510533075.1,286046997.3,N
1510533095.8,286046993.5,N
1510533115.7,286046996.2,N
1510533135.5,286046993.3,N
1510533155.3,286046996.0,N
1510533175.2,286046992.4,N
1510533195.9,286046990.7,N
1510533215.7,286046988.1,N
1510533235.6,286046987.8,N
1510533255.4,286046987.1,N
1510533275.2,286046987.0,N
1510533295.0,286046982.2,N
1510533296.0,286046982.2,N
1510533315.8,286046985.2,N
1510533335.6,286046983.5,N
1510533355.4,286046979.9,N
1510533375.3,286046978.6,N
1510533395.1,286046979.7,N
1510533415.8,286046975.8,N
1510533435.7,286046974.3,N
1510533455.5,286046972.5,Y
1510533475.3,286046981.4,P
1510533495.2,286046978.0,P
1510533515.0,286046976.2,P
1510533515.9,286046976.2,Y
1510533535.7,286046995.4,P
1510533555.6,286046995.9,N
1510533575.4,286046996.4,N
1510533595.2,286046995.5,N
1510533615.1,286046994.0,N
1510533616.0,286046994.0,N
1510533635.8,286046994.2,N
1510533655.6,286046994.5,N
1510533675.5,286046992.0,N
1510533695.3,286046994.8,N
1510533715.1,286046992.7,N
1510533735.9,286046992.7,N
1510533755.7,286046994.7,N
1510533775.5,286046994.5,N
1510533795.4,286046994.2,N
1510533815.2,286046995.4,N
1510533835.0,286046995.3,N
1510533835.9,286046995.3,N
1510533855.7,286046992.1,N
1510533875.6,286046994.1,N
1510533895.4,286046996.4,N
1510533915.2,286046995.7,N
1510533935.1,286046994.6,N
1510533936.0,286046994.6,N
1510533955.8,286046992.0,N
1510533975.6,286046991.8,Y
1510533995.5,286047000.4,P
1510534015.3,286046998.8,N
1510534035.1,286046999.7,N
1510534055.9,286047003.8,N
1510534075.7,286047006.5,N
1510534095.5,286047004.5,N
1510534115.4,286047010.8,N
1510534135.2,286047010.1,N
1510534155.0,286047012.0,N
1510534155.9,286047012.0,N
1510534175.8,286047009.7,N
1510534195.6,286047011.7,N
1510534215.4,286047010.3,N
1510534235.3,286047007.0,N
1510534255.1,286047007.6,N
1510534256.0,286047007.6,N
1510534275.8,286047006.1,N
1510534295.6,286047009.5,N
1510534315.5,286047009.4,N
1510534335.3,286047011.2,N
1510534355.1,286047014.0,N
1510534375.9,286047009.3,N
1510534395.7,286047012.3,N
1510534415.5,286047011.4,N
1510534435.4,286047014.3,N
1510534455.2,286047015.7,Y
1510534475.0,286047013.8,P
1510534475.9,286047013.8,P
1510534495.8,286047014.5,P
1510534515.6,286047013.5,Y
1510534535.4,286047000.6,P
1510534555.3,286047001.0,N
1510534575.1,286047002.3,N
1510534595.8,286047004.1,N
1510534615.7,286047004.0,N
1510534635.5,286047003.7,N
1510534655.3,286047005.2,N
1510534675.2,286047009.2,N
1510534695.9,286047007.4,N
1510534715.7,286047007.9,N
1510534735.6,286047009.5,N
1510534755.4,286047012.6,Y
1510534775.2,286047007.8,P
1510534795.1,286047006.8,P
1510534796.0,286047006.8,P
